Home > Weather > Amritsar > Past weeks

Flag for India Past Weather in Amritsar, Punjab, India — Yesterday and Last 2 Weeks

Now
90 °F

Fog.


Feels Like: 115 °F
Forecast: 89 / 109 °F
Wind: No wind

Location: Amritsar Airport

Current Time: Jul 1, 2016 at 2:59:04 AM

Latest Report: Jul 1, 2016 at 2:30 AM


Visibility: 2 mi

Pressure: 29.42 "Hg

Humidity: 84%

Dew Point: 84 °F

Location of AmritsarLocation

Past Weather in Amritsar — Graph

°F

Amritsar Temperature Yesterday

Maximum temperature yesterday: 102 °F (at 4:00 PM)
Minimum temperature yesterday: 88 °F (at 2:00 AM)
Average temperature yesterday: 94 °F

High & Low Weather Summary for the Past Weeks

 TemperatureHumidityPressure
High102 °F (Jun 25, 2:00 PM)100% (Jun 17, 8:30 AM)29.68 "Hg (Jun 17, 8:30 AM)
Low73 °F (Jun 22, 10:30 AM)39% (Jun 24, 6:00 PM)29.42 "Hg (Jun 16, 2:30 AM)
Average90 °F69%29.55 "Hg
* Reported Jun 16 2:30 AM — Jul 1 1:30 AM, Amritsar, Weather by CustomWeather, © 2016

Note: Actual official high and low records may vary slightly from our data, if they occured in-between our weather recording intervals... More about our weather records

Advertising

Amritsar Weather History for the Previous 24 Hours

Scroll right to see more
 ConditionsComfort  
Time TempWeatherWind HumidityBarometerVisibility
1:30 AM
Fri, Jul 1
91 °FFog.No wind80%29.42 "Hg1 mi
1:00 AM91 °FFog.3 mph75%29.45 "Hg1 mi
12:30 AM91 °FFog.3 mph75%29.45 "Hg1 mi
12:00 AM91 °FPassing clouds.No wind75%29.45 "Hg1 mi
11:30 PM
Thu, Jun 30
93 °FPassing clouds.No wind67%29.45 "Hg1 mi
11:00 PM93 °FPassing clouds.No wind67%29.47 "Hg2 mi
10:30 PM93 °FPassing clouds.No wind71%29.47 "Hg2 mi
10:00 PM95 °FPassing clouds.No wind63%29.45 "Hg2 mi
9:30 PM95 °FPassing clouds.No wind63%29.45 "Hg2 mi
9:00 PM95 °FPassing clouds.No wind63%29.45 "Hg2 mi
8:30 PM97 °FPassing clouds.No wind60%29.42 "Hg2 mi
8:00 PM97 °FScattered clouds.2 mph56%29.42 "Hg2 mi
7:30 PM99 °FHaze.2 mph50%29.42 "Hg2 mi
7:00 PM99 °FHaze.No wind50%29.42 "Hg2 mi
6:30 PM100 °FHaze.3 mph47%29.42 "Hg2 mi
6:00 PM100 °FScattered clouds.3 mph47%29.42 "Hg2 mi
5:30 PM100 °FScattered clouds.2 mph47%29.42 "Hg2 mi
4:00 PM102 °FScattered clouds.2 mph45%29.45 "Hg1 mi
3:30 PM100 °FScattered clouds.2 mph47%29.47 "Hg1 mi
3:00 PM100 °FScattered clouds.6 mph50%29.47 "Hg1 mi
2:00 PM100 °FScattered clouds.3 mph47%29.50 "Hg1 mi
1:30 PM100 °FScattered clouds.2 mph50%29.53 "Hg1 mi
1:00 PM99 °FBroken clouds.No wind53%29.53 "Hg1 mi
12:00 PM99 °FBroken clouds.2 mph50%29.56 "Hg1 mi
11:30 AM97 °FBroken clouds.3 mph53%29.56 "Hg1 mi
11:00 AM99 °FBroken clouds.2 mph53%29.56 "Hg1 mi
10:30 AM97 °FScattered clouds.No wind56%29.56 "Hg1 mi
10:00 AM97 °FHaze.No wind60%29.56 "Hg1 mi
9:30 AM95 °FHaze.2 mph60%29.59 "Hg1 mi
9:00 AM95 °FHaze.No wind60%29.59 "Hg1 mi
8:30 AM93 °FHaze.No wind67%29.56 "Hg1 mi
8:00 AM91 °FFog.No wind75%29.59 "Hg1 mi
7:30 AM90 °FFog.2 mph79%29.56 "Hg1 mi
7:00 AM88 °FFog.2 mph84%29.56 "Hg1 mi
6:30 AM88 °FFog.No wind79%29.56 "Hg1 mi
5:00 AM88 °FFog.No wind79%29.56 "Hg1 mi
4:30 AM88 °FFog.No wind79%29.56 "Hg1 mi
3:30 AM88 °FFog.No wind79%29.56 "Hg1 mi
3:00 AM88 °FHaze.No wind79%29.56 "Hg1 mi
2:30 AM88 °FHaze.No wind79%29.56 "Hg2 mi
2:00 AM88 °FHaze.No wind79%29.56 "Hg2 mi
Weather by CustomWeather, © 2016

See weather overviewHow to use our weather pages